Regional Weather Roundup
Issued by NWS

Home | Current Version | Previous Version | Text Only | Print | Product List | Glossary On
Versions: 1 2 3 4 5 6 7 8 9 10 11 12 13 14 15 16 17 18 19 20 21 22 23 24 25 26 27 28 29 30 31 32 33 34 35 36 37 38 39 40 41 42 43 44 45 46 47 48 49 50
000
ASUS43 KTOP 252259
RWRKS

WEATHER ROUNDUP FOR KANSAS
NATIONAL WEATHER SERVICE GOODLAND KS
600 PM CDT TUE APR 25 2017

NOTE:  "FAIR" INDICATES FEW OR NO CLOUDS BELOW 12,000 FEET WITH NO
SIGNIFICANT WEATHER AND/OR OBSTRUCTIONS TO VISIBILITY.

KSZ001>006-013>018-027>032-041>047-260000-
NORTHWEST KANSAS

CITY           SKY/WX    TMP DP  RH WIND       PRES   REMARKS
GOODLAND       CLOUDY    56  40  55 NE15G22   29.56R
HAYS           CLOUDY    55  43  63 NE14      29.55R
HILL CITY      CLOUDY    51  43  74 N14       29.59R
RUSSELL        PTSUNNY   53  42  66 N16       29.54R
$$

KSZ061>065-074>080-084>089-260000-
SOUTHWEST KANSAS

CITY           SKY/WX    TMP DP  RH WIND       PRES   REMARKS
DODGE CITY     LGT RAIN  54  48  80 NE10      29.54R
ELKHART          N/A     57  45  64 NE16        N/A
GARDEN CITY    CLOUDY    56  44  64 NE10      29.54S
GREAT BEND     LGT RAIN  54  46  74 N13       29.54R
$$

KSZ066>073-081>083-090>101-260000-
SOUTHEAST KANSAS

CITY           SKY/WX    TMP DP  RH WIND       PRES   REMARKS
CHANUTE        CLOUDY    74  59  59 S9        29.41S
COFFEYVILLE    CLOUDY    76  64  66 S8        29.40F
HUTCHINSON     CLOUDY    57  46  66 N13       29.50R
MEDICINE LODGE   N/A     59  50  72 N18G28    29.43F
NEWTON         CLOUDY    58  52  80 N10       29.48R
PARSONS        CLOUDY    75  62  64 S5        29.42S
WICHITA INTL   LGT RAIN  63  53  70 NW18G24   29.47R
WICHITA JABRA  LGT RAIN  62  55  77 N15       29.46R
WINFIELD       MOSUNNY   74  60  61 N15       29.41R
$$

KSZ007>012-019>026-033>040-048>060-102>105-260000-
NORTHEAST KANSAS

CITY           SKY/WX    TMP DP  RH WIND       PRES   REMARKS
CONCORDIA      CLOUDY    48  41  76 N14G22    29.55R
EMPORIA        CLOUDY    71  56  58 NW9       29.42R
LAWRENCE       CLOUDY    71  58  63 CALM      29.42R
MANHATTAN      CLOUDY    58  46  64 N5        29.48R
OLATHE IND     CLOUDY    70  58  65 S7        29.43R
OLATHE EXE     CLOUDY    70  59  68 SW7       29.43R
SALINA         CLOUDY    56  46  69 N12       29.51R
TOPEKA BILLARD CLOUDY    69  57  65 N9        29.42R
TOPEKA FORBES  CLOUDY    70  57  63 N7        29.42R
$$




USA.gov is the U.S. government's official web portal to all federal, state and local government web resources and services.